User: anonymous   Login
Location: Unspecified
(0.0000°N, 0.0000°E)
Time: 10:04:20
(UTC+00:00)
Language:

STARLINK-33922 - Orbit

View from above orbital plane
View from above orbital plane
View from above satellite
View from above satellite

Ground track
Ground track

The orbit is defined by the following mean orbital elements,

1 63698U          26145.50343470 +.00000000 +00000-0 +12895-3 0 00007
2 63698  53.1574 222.5188 0001292  86.7998 273.3150 15.30193320    06
Epoch (UTC): 25 May 2026 12:04:56
Eccentricity: 0.0001292
inclination: 53.1574°
perigee height: 474 km
apogee height: 476 km
right ascension of ascending node: 222.5188°
argument of perigee: 86.7998°
revolutions per day: 15.30193320
mean anomaly at epoch: 273.3150°

The dashed part of the orbit path shows where the satellite is in the earth's shadow,  

DLR